Terminal Aerodrome Forecast
Issued by NWS Charleston, WV

Current Version | Previous Version | Text Only | Print | Product List | Glossary Off
Versions: 1 2 3 4 5 6 7 8 9 10 11 12 13 14 15 16 17 18 19 20 21 22 23

000
FTUS41 KRLX 291701 AAD
TAFBKW
TAF AMD
KBKW 291701Z 2917/3012 29005KT P6SM SHRA VCTS BKN025 BKN040CB
      TEMPO 2917/2919 3SM SHRA BKN015
     FM292200 30005KT P6SM VCTS SCT025 BKN040CB
     FM300000 30003KT P6SM SCT040
     FM300500 00000KT P6SM VCTS SCT025CB
     FM300800 00000KT P6SM VCTS BKN025CB=

USA.gov is the U.S. government's official web portal to all federal, state and local government web resources and services.